Time,TemperatureF,DewpointF,PressureIn,WindDirection,WindDirectionDegrees,WindSpeedMPH,WindSpeedGustMPH,Humidity,HourlyPrecipIn,Conditions,Clouds,dailyrainin,SoftwareType,DateUTC
2014-01-02 00:01:00,21.9,13.8,29.93,North,357,7.6,11.4,70,0.00,,---,0.00,VWS V14.01,2014-01-02 06:01:00,
2014-01-02 00:06:00,21.7,13.6,29.93,North,353,8.7,11.0,70,0.00,,---,0.00,VWS V14.01,2014-01-02 06:06:00,
2014-01-02 00:11:00,21.6,13.5,29.93,NNW,331,11.0,11.0,70,0.00,,---,0.00,VWS V14.01,2014-01-02 06:11:00,
2014-01-02 00:16:00,21.7,13.6,29.93,North,357,7.6,8.3,70,0.00,,---,0.00,VWS V14.01,2014-01-02 06:16:00,
2014-01-02 00:21:00,21.6,13.9,29.96,NNW,345,8.7,8.7,72,0.00,,---,0.00,VWS V14.01,2014-01-02 06:21:00,
2014-01-02 00:26:00,21.4,13.8,29.96,NNW,341,6.7,8.3,72,0.00,,---,0.00,VWS V14.01,2014-01-02 06:26:00,
2014-01-02 00:31:00,21.2,14.1,29.96,NW,318,8.7,8.7,74,0.00,,---,0.00,VWS V14.01,2014-01-02 06:31:00,
2014-01-02 00:36:00,21.2,14.5,29.96,WNW,297,8.3,8.3,75,0.00,,---,0.00,VWS V14.01,2014-01-02 06:36:00,
2014-01-02 00:41:00,21.2,14.5,29.96,North,3,7.6,8.7,75,0.00,,---,0.00,VWS V14.01,2014-01-02 06:41:00,
2014-01-02 00:46:00,21.2,14.5,29.96,NNW,341,9.6,9.6,75,0.00,,---,0.00,VWS V14.01,2014-01-02 06:46:00,
2014-01-02 00:51:00,21.2,14.5,29.96,NNW,341,13.2,13.2,75,0.00,,---,0.00,VWS V14.01,2014-01-02 06:51:00,
2014-01-02 00:56:00,21.2,14.5,29.96,North,353,6.3,7.6,75,0.00,,---,0.00,VWS V14.01,2014-01-02 06:56:00,
2014-01-02 01:01:00,21.2,14.1,29.96,North,11,12.3,12.3,74,0.00,,---,0.00,VWS V14.01,2014-01-02 07:01:00,
2014-01-02 01:06:00,21.2,13.6,29.96,NNW,338,8.1,10.5,72,0.00,,---,0.00,VWS V14.01,2014-01-02 07:06:00,
2014-01-02 01:07:00,21.2,13.6,29.96,NNW,328,11.0,11.0,72,0.00,,---,0.00,VWS V14.01,2014-01-02 07:07:00,
2014-01-02 01:12:00,21.2,13.6,29.96,North,7,8.7,8.7,72,0.00,,---,0.00,VWS V14.01,2014-01-02 07:12:00,
2014-01-02 01:17:00,21.2,13.6,29.96,North,357,8.1,8.7,72,0.00,,---,0.00,VWS V14.01,2014-01-02 07:17:00,
2014-01-02 01:22:00,21.0,13.4,29.96,North,353,8.3,9.2,72,0.00,,---,0.00,VWS V14.01,2014-01-02 07:22:00,
2014-01-02 01:27:00,21.0,13.9,29.96,North,10,8.1,8.1,74,0.00,,---,0.00,VWS V14.01,2014-01-02 07:27:00,
2014-01-02 01:32:00,20.8,13.7,29.96,NNW,344,5.8,8.1,74,0.00,,---,0.00,VWS V14.01,2014-01-02 07:32:00,
2014-01-02 01:37:00,20.8,13.7,29.96,NNW,340,7.2,7.2,74,0.00,,---,0.00,VWS V14.01,2014-01-02 07:37:00,
2014-01-02 01:42:00,20.8,13.7,29.96,NNW,343,8.1,8.1,74,0.00,,---,0.00,VWS V14.01,2014-01-02 07:42:00,
2014-01-02 01:47:00,20.8,13.7,29.96,NNW,341,8.1,8.1,74,0.00,,---,0.00,VWS V14.01,2014-01-02 07:47:00,
2014-01-02 01:52:00,20.7,13.6,29.99,NNE,13,5.4,5.4,74,0.00,,---,0.00,VWS V14.01,2014-01-02 07:52:00,
2014-01-02 01:57:00,20.7,13.6,29.99,NNW,345,7.6,7.6,74,0.00,,---,0.00,VWS V14.01,2014-01-02 07:57:00,
2014-01-02 02:02:00,20.5,13.4,29.99,NNW,339,4.5,5.4,74,0.00,,---,0.00,VWS V14.01,2014-01-02 08:02:00,
2014-01-02 02:07:00,20.5,13.4,29.99,North,1,5.8,6.3,74,0.00,,---,0.00,VWS V14.01,2014-01-02 08:07:00,
2014-01-02 02:12:00,20.5,13.4,29.99,NNW,343,8.1,10.1,74,0.00,,---,0.00,VWS V14.01,2014-01-02 08:12:00,
2014-01-02 02:17:00,20.5,12.9,29.99,North,0,8.3,8.3,72,0.00,,---,0.00,VWS V14.01,2014-01-02 08:17:00,
2014-01-02 02:22:00,20.5,12.9,29.99,North,3,9.6,10.5,72,0.00,,---,0.00,VWS V14.01,2014-01-02 08:22:00,
2014-01-02 02:27:00,20.3,12.7,29.99,North,2,8.7,8.7,72,0.00,,---,0.00,VWS V14.01,2014-01-02 08:27:00,
2014-01-02 02:32:00,20.3,12.7,29.99,NNE,14,7.6,7.6,72,0.00,,---,0.00,VWS V14.01,2014-01-02 08:32:00,
2014-01-02 02:37:00,20.3,12.7,29.99,NNW,337,7.6,8.3,72,0.00,,---,0.00,VWS V14.01,2014-01-02 08:37:00,
2014-01-02 02:42:00,20.1,12.6,29.99,NNW,342,5.4,5.4,72,0.00,,---,0.00,VWS V14.01,2014-01-02 08:42:00,
2014-01-02 02:47:00,19.9,12.9,29.99,North,0,7.6,8.1,74,0.00,,---,0.00,VWS V14.01,2014-01-02 08:47:00,
2014-01-02 02:52:00,19.9,12.4,29.99,NNW,345,5.8,5.8,72,0.00,,---,0.00,VWS V14.01,2014-01-02 08:52:00,
2014-01-02 02:57:00,19.8,12.7,29.99,North,353,4.9,5.4,74,0.00,,---,0.00,VWS V14.01,2014-01-02 08:57:00,
2014-01-02 03:02:00,19.6,12.5,29.99,NNW,337,4.9,4.9,74,0.00,,---,0.00,VWS V14.01,2014-01-02 09:02:00,
2014-01-02 03:07:00,19.4,12.3,30.02,North,353,4.0,4.0,74,0.00,,---,0.00,VWS V14.01,2014-01-02 09:07:00,
2014-01-02 03:12:00,19.2,12.1,30.02,North,353,5.8,5.8,74,0.00,,---,0.00,VWS V14.01,2014-01-02 09:12:00,
2014-01-02 03:17:00,19.2,12.6,30.02,NNW,343,4.9,4.9,75,0.00,,---,0.00,VWS V14.01,2014-01-02 09:17:00,
2014-01-02 03:22:00,19.0,12.4,30.02,North,4,4.9,5.8,75,0.00,,---,0.00,VWS V14.01,2014-01-02 09:22:00,
2014-01-02 03:27:00,19.0,12.4,30.02,NNE,14,4.0,4.0,75,0.00,,---,0.00,VWS V14.01,2014-01-02 09:27:00,
2014-01-02 03:32:00,19.2,12.6,30.02,North,0,5.4,5.4,75,0.00,,---,0.00,VWS V14.01,2014-01-02 09:32:00,
2014-01-02 03:37:00,19.2,12.1,30.02,North,353,4.0,4.0,74,0.00,,---,0.00,VWS V14.01,2014-01-02 09:37:00,
2014-01-02 03:42:00,19.0,12.0,30.02,North,7,3.6,3.6,74,0.00,,---,0.00,VWS V14.01,2014-01-02 09:42:00,
2014-01-02 03:47:00,19.0,12.0,30.02,North,1,6.3,6.3,74,0.00,,---,0.00,VWS V14.01,2014-01-02 09:47:00,
2014-01-02 03:52:00,18.9,12.3,30.02,North,350,4.9,5.4,75,0.00,,---,0.00,VWS V14.01,2014-01-02 09:52:00,
2014-01-02 03:57:00,18.9,12.3,30.02,NW,309,7.6,7.6,75,0.00,,---,0.00,VWS V14.01,2014-01-02 09:57:00,
2014-01-02 04:02:00,19.0,12.0,30.02,NNW,344,5.8,8.1,74,0.00,,---,0.00,VWS V14.01,2014-01-02 10:02:00,
2014-01-02 04:07:00,18.9,11.8,30.02,NNW,328,5.8,5.8,74,0.00,,---,0.00,VWS V14.01,2014-01-02 10:07:00,
2014-01-02 04:12:00,18.7,11.6,30.02,NNW,340,6.3,7.6,74,0.00,,---,0.00,VWS V14.01,2014-01-02 10:12:00,
2014-01-02 04:17:00,18.7,11.6,30.02,North,0,4.0,4.0,74,0.00,,---,0.00,VWS V14.01,2014-01-02 10:17:00,
2014-01-02 04:22:00,18.5,11.5,30.02,NNW,334,3.6,5.4,74,0.00,,---,0.00,VWS V14.01,2014-01-02 10:22:00,
2014-01-02 04:27:00,18.5,11.5,30.02,North,353,6.7,6.7,74,0.00,,---,0.00,VWS V14.01,2014-01-02 10:27:00,
2014-01-02 04:32:00,18.3,11.3,30.02,North,353,5.4,5.4,74,0.00,,---,0.00,VWS V14.01,2014-01-02 10:32:00,
2014-01-02 04:37:00,18.1,11.6,30.02,NNW,345,5.4,5.8,75,0.00,,---,0.00,VWS V14.01,2014-01-02 10:37:00,
2014-01-02 04:42:00,18.1,11.6,30.02,North,353,6.3,6.3,75,0.00,,---,0.00,VWS V14.01,2014-01-02 10:42:00,
2014-01-02 04:47:00,18.1,11.6,30.02,North,353,4.0,4.5,75,0.00,,---,0.00,VWS V14.01,2014-01-02 10:47:00,
2014-01-02 04:52:00,18.1,11.6,30.02,NW,321,6.3,6.3,75,0.00,,---,0.00,VWS V14.01,2014-01-02 10:52:00,
2014-01-02 04:57:00,17.8,11.2,30.02,NNW,345,6.3,6.3,75,0.00,,---,0.00,VWS V14.01,2014-01-02 10:57:00,
2014-01-02 05:02:00,17.8,11.2,30.02,North,353,6.3,6.3,75,0.00,,---,0.00,VWS V14.01,2014-01-02 11:02:00,
2014-01-02 05:07:00,17.6,11.5,30.02,North,353,5.4,5.4,76,0.00,,---,0.00,VWS V14.01,2014-01-02 11:07:00,
2014-01-02 05:12:00,17.4,11.3,30.02,North,353,3.6,3.6,76,0.00,,---,0.00,VWS V14.01,2014-01-02 11:12:00,
2014-01-02 05:17:00,17.2,11.6,30.02,North,353,3.6,4.0,78,0.00,,---,0.00,VWS V14.01,2014-01-02 11:17:00,
2014-01-02 05:22:00,17.2,11.6,30.02,NNW,342,4.0,4.5,78,0.00,,---,0.00,VWS V14.01,2014-01-02 11:22:00,
2014-01-02 05:27:00,16.9,11.2,30.02,NNW,333,3.6,3.6,78,0.00,,---,0.00,VWS V14.01,2014-01-02 11:27:00,
2014-01-02 05:32:00,16.7,11.1,30.02,NNW,335,4.9,4.9,78,0.00,,---,0.00,VWS V14.01,2014-01-02 11:32:00,
2014-01-02 05:37:00,16.5,10.9,30.05,North,0,2.7,3.1,78,0.00,,---,0.00,VWS V14.01,2014-01-02 11:37:00,
2014-01-02 05:42:00,16.5,11.3,30.05,North,357,2.7,3.6,80,0.00,,---,0.00,VWS V14.01,2014-01-02 11:42:00,
2014-01-02 05:47:00,16.2,10.5,30.05,NNW,335,2.7,3.6,78,0.00,,---,0.00,VWS V14.01,2014-01-02 11:47:00,
2014-01-02 05:52:00,16.0,10.4,30.05,NNW,335,0.0,0.0,78,0.00,,---,0.00,VWS V14.01,2014-01-02 11:52:00,
2014-01-02 05:57:00,15.8,10.6,30.05,NNW,338,3.1,4.9,80,0.00,,---,0.00,VWS V14.01,2014-01-02 11:57:00,
2014-01-02 06:02:00,15.6,10.4,30.05,NW,324,2.7,4.0,80,0.00,,---,0.00,VWS V14.01,2014-01-02 12:02:00,
2014-01-02 06:07:00,15.6,10.8,30.05,NW,324,3.1,3.6,81,0.00,,---,0.00,VWS V14.01,2014-01-02 12:07:00,
2014-01-02 06:12:00,15.4,10.7,30.05,NW,324,0.0,2.7,81,0.00,,---,0.00,VWS V14.01,2014-01-02 12:12:00,
2014-01-02 06:17:00,15.4,10.7,30.05,NW,324,0.0,0.0,81,0.00,,---,0.00,VWS V14.01,2014-01-02 12:17:00,
2014-01-02 06:22:00,15.3,10.5,30.05,NW,324,2.7,2.7,81,0.00,,---,0.00,VWS V14.01,2014-01-02 12:22:00,
2014-01-02 06:27:00,15.3,10.5,30.05,NW,324,0.0,0.0,81,0.00,,---,0.00,VWS V14.01,2014-01-02 12:27:00,
2014-01-02 06:32:00,15.1,10.3,30.05,NW,324,0.0,2.7,81,0.00,,---,0.00,VWS V14.01,2014-01-02 12:32:00,
2014-01-02 06:36:00,15.3,10.5,30.05,North,0,4.0,4.9,81,0.00,,---,0.00,VWS V14.01,2014-01-02 12:36:00,
2014-01-02 06:41:00,15.4,11.1,30.05,North,353,3.6,4.9,82,0.00,,---,0.00,VWS V14.01,2014-01-02 12:41:00,
2014-01-02 06:46:00,15.8,11.4,30.05,North,350,3.1,3.6,82,0.00,,---,0.00,VWS V14.01,2014-01-02 12:46:00,
2014-01-02 06:51:00,15.8,11.4,30.05,North,353,0.0,2.2,82,0.00,,---,0.00,VWS V14.01,2014-01-02 12:51:00,
2014-01-02 06:56:00,15.8,11.4,30.05,North,353,2.7,3.1,82,0.00,,---,0.00,VWS V14.01,2014-01-02 12:56:00,
2014-01-02 07:01:00,15.6,11.2,30.05,North,353,2.7,3.1,82,0.00,,---,0.00,VWS V14.01,2014-01-02 13:01:00,
2014-01-02 07:06:00,15.4,11.1,30.05,NNW,328,3.6,5.4,82,0.00,,---,0.00,VWS V14.01,2014-01-02 13:06:00,
2014-01-02 07:11:00,15.6,11.2,30.05,NNW,328,4.0,4.0,82,0.00,,---,0.00,VWS V14.01,2014-01-02 13:11:00,
2014-01-02 07:16:00,15.8,11.4,30.05,NNW,328,3.1,4.0,82,0.00,,---,0.00,VWS V14.01,2014-01-02 13:16:00,
2014-01-02 07:21:00,15.8,11.4,30.05,NNW,328,2.7,3.6,82,0.00,,---,0.00,VWS V14.01,2014-01-02 13:21:00,
2014-01-02 07:26:00,15.8,11.4,30.05,NNW,328,3.1,3.1,82,0.00,,---,0.00,VWS V14.01,2014-01-02 13:26:00,
2014-01-02 07:31:00,15.8,11.4,30.05,NNW,328,3.6,5.4,82,0.00,,---,0.00,VWS V14.01,2014-01-02 13:31:00,
2014-01-02 07:36:00,16.0,11.6,30.05,NNW,345,4.9,4.9,82,0.00,,---,0.00,VWS V14.01,2014-01-02 13:36:00,
2014-01-02 07:41:00,16.2,11.8,30.05,NNW,345,3.6,4.0,82,0.00,,---,0.00,VWS V14.01,2014-01-02 13:41:00,
2014-01-02 07:46:00,16.3,12.0,30.05,NNW,345,2.2,3.1,82,0.00,,---,0.00,VWS V14.01,2014-01-02 13:46:00,
2014-01-02 07:51:00,16.3,12.0,30.05,NNW,345,2.2,3.1,82,0.00,,---,0.00,VWS V14.01,2014-01-02 13:51:00,
2014-01-02 07:56:00,16.5,12.1,30.05,NNW,345,4.9,4.9,82,0.00,,---,0.00,VWS V14.01,2014-01-02 13:56:00,
2014-01-02 08:01:00,16.5,12.1,30.05,NNW,345,3.6,3.6,82,0.00,,---,0.00,VWS V14.01,2014-01-02 14:01:00,
2014-01-02 08:06:00,16.5,11.7,30.05,NNW,331,6.3,6.3,81,0.00,,---,0.00,VWS V14.01,2014-01-02 14:06:00,
2014-01-02 08:11:00,16.7,12.3,30.05,NNW,331,3.1,3.6,82,0.00,,---,0.00,VWS V14.01,2014-01-02 14:11:00,
2014-01-02 08:16:00,17.1,12.7,30.05,NNW,331,2.7,4.0,82,0.00,,---,0.00,VWS V14.01,2014-01-02 14:16:00,
2014-01-02 08:21:00,17.6,13.2,30.08,NNW,330,4.9,4.9,82,0.00,,---,0.00,VWS V14.01,2014-01-02 14:21:00,
2014-01-02 08:26:00,18.1,13.3,30.08,NNW,330,3.1,3.6,81,0.00,,---,0.00,VWS V14.01,2014-01-02 14:26:00,
2014-01-02 08:31:00,18.7,14.2,30.08,WSW,254,3.6,4.0,82,0.00,,---,0.00,VWS V14.01,2014-01-02 14:31:00,
2014-01-02 08:36:00,19.4,14.5,30.08,WSW,254,3.1,3.1,81,0.00,,---,0.00,VWS V14.01,2014-01-02 14:36:00,
2014-01-02 08:41:00,19.9,15.1,30.08,NW,312,3.1,4.0,81,0.00,,---,0.00,VWS V14.01,2014-01-02 14:41:00,
2014-01-02 08:46:00,20.3,15.4,30.08,North,357,4.0,4.0,81,0.00,,---,0.00,VWS V14.01,2014-01-02 14:46:00,
2014-01-02 08:51:00,20.7,15.3,30.08,North,357,2.7,4.0,80,0.00,,---,0.00,VWS V14.01,2014-01-02 14:51:00,
2014-01-02 08:56:00,21.0,15.7,30.08,NNE,21,5.4,5.4,80,0.00,,---,0.00,VWS V14.01,2014-01-02 14:56:00,
2014-01-02 09:01:00,21.4,14.7,30.08,North,0,4.9,4.9,75,0.00,,---,0.00,VWS V14.01,2014-01-02 15:01:00,
2014-01-02 09:06:00,21.7,14.6,30.08,NNW,336,3.1,5.4,74,0.00,,---,0.00,VWS V14.01,2014-01-02 15:06:00,
2014-01-02 09:11:00,22.1,14.5,30.08,NNW,333,5.4,6.3,72,0.00,,---,0.00,VWS V14.01,2014-01-02 15:11:00,
2014-01-02 09:16:00,22.5,14.3,30.08,NNE,14,4.9,5.4,70,0.00,,---,0.00,VWS V14.01,2014-01-02 15:16:00,
2014-01-02 09:21:00,22.8,13.7,30.08,NNE,18,5.8,7.6,68,0.00,,---,0.00,VWS V14.01,2014-01-02 15:21:00,
2014-01-02 09:26:00,23.2,13.5,30.08,North,6,5.8,5.8,66,0.00,,---,0.00,VWS V14.01,2014-01-02 15:26:00,
2014-01-02 09:31:00,23.5,13.9,30.08,NNE,23,4.0,4.0,66,0.00,,---,0.00,VWS V14.01,2014-01-02 15:31:00,
2014-01-02 09:36:00,23.9,13.7,30.08,NNE,30,4.9,4.9,64,0.00,,---,0.00,VWS V14.01,2014-01-02 15:36:00,
2014-01-02 09:41:00,24.3,14.0,30.08,North,357,4.0,6.3,64,0.00,,---,0.00,VWS V14.01,2014-01-02 15:41:00,
2014-01-02 09:46:00,24.4,14.2,30.08,North,10,5.4,5.4,64,0.00,,---,0.00,VWS V14.01,2014-01-02 15:46:00,
2014-01-02 09:51:00,24.8,14.5,30.08,NNE,23,7.6,7.6,64,0.00,,---,0.00,VWS V14.01,2014-01-02 15:51:00,
2014-01-02 09:56:00,25.3,14.5,30.08,North,353,6.3,8.1,63,0.00,,---,0.00,VWS V14.01,2014-01-02 15:56:00,
2014-01-02 10:01:00,25.5,14.7,30.08,North,357,5.8,5.8,63,0.00,,---,0.00,VWS V14.01,2014-01-02 16:01:00,
2014-01-02 10:06:00,25.7,14.9,30.08,NNE,27,6.3,6.3,63,0.00,,---,0.00,VWS V14.01,2014-01-02 16:06:00,
2014-01-02 10:11:00,26.1,15.2,30.08,NNE,20,6.3,6.7,63,0.00,,---,0.00,VWS V14.01,2014-01-02 16:11:00,
2014-01-02 10:16:00,26.4,15.0,30.08,NNE,28,5.4,5.8,62,0.00,,---,0.00,VWS V14.01,2014-01-02 16:16:00,
2014-01-02 10:21:00,26.6,15.2,30.11,North,0,4.0,4.9,62,0.00,,---,0.00,VWS V14.01,2014-01-02 16:21:00,
2014-01-02 10:26:00,26.8,15.3,30.11,North,8,3.1,3.6,62,0.00,,---,0.00,VWS V14.01,2014-01-02 16:26:00,
2014-01-02 10:31:00,27.3,15.3,30.11,NNE,19,3.6,3.6,60,0.00,,---,0.00,VWS V14.01,2014-01-02 16:31:00,
2014-01-02 10:36:00,27.5,15.4,30.08,NW,304,0.0,0.0,60,0.00,,---,0.00,VWS V14.01,2014-01-02 16:36:00,
2014-01-02 10:41:00,27.9,15.8,30.08,North,357,3.6,4.9,60,0.00,,---,0.00,VWS V14.01,2014-01-02 16:41:00,
2014-01-02 10:46:00,28.6,15.9,30.08,NNW,345,2.7,3.1,58,0.00,,---,0.00,VWS V14.01,2014-01-02 16:46:00,
2014-01-02 10:51:00,28.9,16.2,30.11,NNW,344,2.7,4.0,58,0.00,,---,0.00,VWS V14.01,2014-01-02 16:51:00,
2014-01-02 10:56:00,29.3,16.0,30.11,North,353,2.7,5.4,57,0.00,,---,0.00,VWS V14.01,2014-01-02 16:56:00,
2014-01-02 11:01:00,29.5,16.1,30.11,WNW,292,0.0,2.7,57,0.00,,---,0.00,VWS V14.01,2014-01-02 17:01:00,
2014-01-02 11:06:00,29.8,15.9,30.11,North,357,5.8,8.7,56,0.00,,---,0.00,VWS V14.01,2014-01-02 17:06:00,
2014-01-02 11:11:00,30.0,16.0,30.11,North,5,4.0,6.3,56,0.00,,---,0.00,VWS V14.01,2014-01-02 17:11:00,
2014-01-02 11:16:00,30.2,16.2,30.11,NNW,341,5.4,6.3,56,0.00,,---,0.00,VWS V14.01,2014-01-02 17:16:00,
2014-01-02 11:21:00,30.2,16.2,30.08,NW,325,2.7,5.4,56,0.00,,---,0.00,VWS V14.01,2014-01-02 17:21:00,
2014-01-02 11:26:00,30.7,16.1,30.08,North,353,4.0,7.6,54,0.00,,---,0.00,VWS V14.01,2014-01-02 17:26:00,
2014-01-02 11:31:00,30.9,16.2,30.08,NNE,30,5.4,5.4,54,0.00,,---,0.00,VWS V14.01,2014-01-02 17:31:00,
2014-01-02 11:36:00,31.3,16.6,30.08,NNW,328,5.4,5.8,54,0.00,,---,0.00,VWS V14.01,2014-01-02 17:36:00,
2014-01-02 11:41:00,31.6,16.3,30.08,WNW,293,5.4,5.8,52,0.00,,---,0.00,VWS V14.01,2014-01-02 17:41:00,
2014-01-02 11:46:00,31.6,16.3,30.08,North,357,5.8,7.6,52,0.00,,---,0.00,VWS V14.01,2014-01-02 17:46:00,
2014-01-02 11:51:00,31.8,16.4,30.08,NNW,342,2.7,4.0,52,0.00,,---,0.00,VWS V14.01,2014-01-02 17:51:00,
2014-01-02 11:56:00,32.2,17.4,30.08,NNE,12,3.6,4.0,54,0.00,,---,0.00,VWS V14.01,2014-01-02 17:56:00,
2014-01-02 12:01:00,32.7,17.3,30.08,WNW,286,6.3,8.7,52,0.00,,---,0.00,VWS V14.01,2014-01-02 18:01:00,
2014-01-02 12:06:00,33.1,17.6,30.08,NW,317,4.0,5.4,52,0.00,,---,0.00,VWS V14.01,2014-01-02 18:06:00,
2014-01-02 12:11:00,33.3,17.8,30.08,West,266,5.4,5.4,52,0.00,,---,0.00,VWS V14.01,2014-01-02 18:11:00,
2014-01-02 12:16:00,33.6,18.1,30.08,West,275,5.4,7.6,52,0.00,,---,0.00,VWS V14.01,2014-01-02 18:16:00,
2014-01-02 12:21:00,33.8,17.6,30.05,WNW,297,3.1,4.0,51,0.00,,---,0.00,VWS V14.01,2014-01-02 18:21:00,
2014-01-02 12:26:00,34.0,17.8,30.05,WNW,289,4.0,4.0,51,0.00,,---,0.00,VWS V14.01,2014-01-02 18:26:00,
2014-01-02 12:31:00,34.3,18.1,30.05,WSW,252,4.9,5.8,51,0.00,,---,0.00,VWS V14.01,2014-01-02 18:31:00,
2014-01-02 12:36:00,34.5,18.3,30.05,WNW,296,6.3,6.3,51,0.00,,---,0.00,VWS V14.01,2014-01-02 18:36:00,
2014-01-02 12:41:00,34.7,18.4,30.05,WSW,256,3.1,3.1,51,0.00,,---,0.00,VWS V14.01,2014-01-02 18:41:00,
2014-01-02 12:46:00,35.2,18.9,30.05,SW,232,0.0,4.0,51,0.00,,---,0.00,VWS V14.01,2014-01-02 18:46:00,
2014-01-02 12:51:00,35.4,18.4,30.05,SSW,203,2.2,3.6,50,0.00,,---,0.00,VWS V14.01,2014-01-02 18:51:00,
2014-01-02 12:56:00,35.4,18.4,30.05,WNW,286,5.4,7.6,50,0.00,,---,0.00,VWS V14.01,2014-01-02 18:56:00,
2014-01-02 13:01:00,35.2,18.2,30.05,WNW,294,0.0,0.0,50,0.00,,---,0.00,VWS V14.01,2014-01-02 19:01:00,
2014-01-02 13:06:00,35.4,18.4,30.02,WNW,301,3.6,5.8,50,0.00,,---,0.00,VWS V14.01,2014-01-02 19:06:00,
2014-01-02 13:11:00,35.2,18.2,30.02,WNW,290,2.2,2.2,50,0.00,,---,0.00,VWS V14.01,2014-01-02 19:11:00,
2014-01-02 13:16:00,36.0,18.9,30.02,North,353,0.0,3.6,50,0.00,,---,0.00,VWS V14.01,2014-01-02 19:16:00,
2014-01-02 13:21:00,36.7,19.6,30.02,NW,325,0.0,0.0,50,0.00,,---,0.00,VWS V14.01,2014-01-02 19:21:00,
2014-01-02 13:26:00,37.0,19.9,30.02,North,357,3.6,3.6,50,0.00,,---,0.00,VWS V14.01,2014-01-02 19:26:00,
2014-01-02 13:31:00,37.4,19.5,30.02,NW,321,6.3,6.3,48,0.00,,---,0.00,VWS V14.01,2014-01-02 19:31:00,
2014-01-02 13:36:00,37.8,19.9,30.02,NNW,335,6.3,6.3,48,0.00,,---,0.00,VWS V14.01,2014-01-02 19:36:00,
2014-01-02 13:41:00,37.6,19.7,30.02,NNE,28,2.2,2.2,48,0.00,,---,0.00,VWS V14.01,2014-01-02 19:41:00,
2014-01-02 13:46:00,37.9,20.0,30.02,NW,311,4.0,4.0,48,0.00,,---,0.00,VWS V14.01,2014-01-02 19:46:00,
2014-01-02 13:51:00,37.9,20.0,29.99,NW,306,0.0,0.0,48,0.00,,---,0.00,VWS V14.01,2014-01-02 19:51:00,
2014-01-02 13:56:00,37.9,19.3,29.99,WSW,257,0.0,0.0,46,0.00,,---,0.00,VWS V14.01,2014-01-02 19:56:00,
2014-01-02 14:01:00,38.5,20.5,29.99,WNW,289,0.0,0.0,48,0.00,,---,0.00,VWS V14.01,2014-01-02 20:01:00,
2014-01-02 14:06:00,38.8,20.1,29.99,West,271,3.6,3.6,46,0.00,,---,0.00,VWS V14.01,2014-01-02 20:06:00,
2014-01-02 14:11:00,39.2,20.4,29.99,SSE,151,3.6,3.6,46,0.00,,---,0.00,VWS V14.01,2014-01-02 20:11:00,
2014-01-02 14:16:00,39.4,20.6,29.99,SSE,150,0.0,2.7,46,0.00,,---,0.00,VWS V14.01,2014-01-02 20:16:00,
2014-01-02 14:21:00,39.7,20.9,29.99,NNW,334,3.1,4.5,46,0.00,,---,0.00,VWS V14.01,2014-01-02 20:21:00,
2014-01-02 14:26:00,39.6,20.8,29.99,West,277,0.0,0.0,46,0.00,,---,0.00,VWS V14.01,2014-01-02 20:26:00,
2014-01-02 14:31:00,40.1,21.2,29.99,West,269,3.6,3.6,46,0.00,,---,0.00,VWS V14.01,2014-01-02 20:31:00,
2014-01-02 14:36:00,40.5,20.8,29.99,WSW,258,4.9,4.9,45,0.00,,---,0.00,VWS V14.01,2014-01-02 20:36:00,
2014-01-02 14:41:00,40.5,20.8,29.99,SW,217,4.0,4.0,45,0.00,,---,0.00,VWS V14.01,2014-01-02 20:41:00,
2014-01-02 14:46:00,40.3,20.6,29.99,SSW,197,3.6,5.8,45,0.00,,---,0.00,VWS V14.01,2014-01-02 20:46:00,
2014-01-02 14:51:00,40.3,20.6,29.96,SW,236,3.6,3.6,45,0.00,,---,0.00,VWS V14.01,2014-01-02 20:51:00,
2014-01-02 14:56:00,40.5,20.8,29.96,West,259,0.0,0.0,45,0.00,,---,0.00,VWS V14.01,2014-01-02 20:56:00,
2014-01-02 15:01:00,40.6,21.0,29.96,NW,320,2.7,2.7,45,0.00,,---,0.00,VWS V14.01,2014-01-02 21:01:00,
2014-01-02 15:06:00,41.0,21.3,29.96,WSW,248,5.4,5.4,45,0.00,,---,0.00,VWS V14.01,2014-01-02 21:06:00,
2014-01-02 15:11:00,40.8,21.1,29.96,SW,231,3.6,4.5,45,0.00,,---,0.00,VWS V14.01,2014-01-02 21:11:00,
2014-01-02 15:16:00,40.6,21.0,29.96,South,191,0.0,0.0,45,0.00,,---,0.00,VWS V14.01,2014-01-02 21:16:00,
2014-01-02 15:21:00,41.0,21.3,29.96,WSW,241,0.0,2.2,45,0.00,,---,0.00,VWS V14.01,2014-01-02 21:21:00,
2014-01-02 15:26:00,41.2,21.5,29.96,South,177,5.8,5.8,45,0.00,,---,0.00,VWS V14.01,2014-01-02 21:26:00,
2014-01-02 15:31:00,41.4,21.6,29.96,South,187,3.6,3.6,45,0.00,,---,0.00,VWS V14.01,2014-01-02 21:31:00,
2014-01-02 15:36:00,41.4,20.8,29.96,SSW,211,2.7,2.7,44,0.00,,---,0.00,VWS V14.01,2014-01-02 21:36:00,
2014-01-02 15:41:00,41.2,20.7,29.96,SW,231,2.7,3.1,44,0.00,,---,0.00,VWS V14.01,2014-01-02 21:41:00,
2014-01-02 15:46:00,41.0,20.5,29.96,SW,224,5.4,5.4,44,0.00,,---,0.00,VWS V14.01,2014-01-02 21:46:00,
2014-01-02 15:51:00,41.0,20.5,29.96,SSW,199,4.9,5.4,44,0.00,,---,0.00,VWS V14.01,2014-01-02 21:51:00,
2014-01-02 15:56:00,41.0,20.5,29.96,SW,229,3.1,3.1,44,0.00,,---,0.00,VWS V14.01,2014-01-02 21:56:00,
2014-01-02 16:01:00,41.4,20.8,29.96,WSW,242,0.0,0.0,44,0.00,,---,0.00,VWS V14.01,2014-01-02 22:01:00,
2014-01-02 16:06:00,41.4,20.8,29.96,South,185,2.7,3.1,44,0.00,,---,0.00,VWS V14.01,2014-01-02 22:06:00,
2014-01-02 16:11:00,41.4,20.8,29.96,WSW,258,4.0,5.4,44,0.00,,---,0.00,VWS V14.01,2014-01-02 22:11:00,
2014-01-02 16:16:00,41.5,21.0,29.96,SW,236,4.0,4.0,44,0.00,,---,0.00,VWS V14.01,2014-01-02 22:16:00,
2014-01-02 16:21:00,41.5,21.0,29.96,SW,226,0.0,0.0,44,0.00,,---,0.00,VWS V14.01,2014-01-02 22:21:00,
2014-01-02 16:26:00,41.5,21.0,29.96,SW,236,3.1,3.1,44,0.00,,---,0.00,VWS V14.01,2014-01-02 22:26:00,
2014-01-02 16:31:00,41.0,20.5,29.96,SW,224,2.7,2.7,44,0.00,,---,0.00,VWS V14.01,2014-01-02 22:31:00,
2014-01-02 16:36:00,41.0,20.5,29.96,SSW,207,7.2,7.2,44,0.00,,---,0.00,VWS V14.01,2014-01-02 22:36:00,
2014-01-02 16:41:00,40.6,21.0,29.96,SSW,200,4.0,4.5,45,0.00,,---,0.00,VWS V14.01,2014-01-02 22:41:00,
2014-01-02 16:46:00,40.5,20.8,29.96,SSE,168,3.6,3.6,45,0.00,,---,0.00,VWS V14.01,2014-01-02 22:46:00,
2014-01-02 16:51:00,40.1,20.5,29.96,SSW,192,5.4,5.4,45,0.00,,---,0.00,VWS V14.01,2014-01-02 22:51:00,
2014-01-02 16:56:00,39.9,20.3,29.96,South,185,5.8,5.8,45,0.00,,---,0.00,VWS V14.01,2014-01-02 22:56:00,
2014-01-02 17:01:00,39.6,20.0,29.96,SSE,164,5.4,6.3,45,0.00,,---,0.00,VWS V14.01,2014-01-02 23:01:00,
2014-01-02 17:06:00,39.2,19.7,29.96,South,171,4.0,4.9,45,0.00,,---,0.00,VWS V14.01,2014-01-02 23:06:00,
2014-01-02 17:11:00,38.8,20.1,29.96,South,178,5.8,5.8,46,0.00,,---,0.00,VWS V14.01,2014-01-02 23:11:00,
2014-01-02 17:16:00,38.7,19.9,29.96,SSW,196,4.5,4.9,46,0.00,,---,0.00,VWS V14.01,2014-01-02 23:16:00,
2014-01-02 17:20:00,38.1,19.4,29.96,South,186,3.6,4.0,46,0.00,,---,0.00,VWS V14.01,2014-01-02 23:20:00,
2014-01-02 17:25:00,37.8,19.1,29.96,South,185,4.0,4.9,46,0.00,,---,0.00,VWS V14.01,2014-01-02 23:25:00,
2014-01-02 17:30:00,37.2,18.6,29.96,South,171,4.0,4.0,46,0.00,,---,0.00,VWS V14.01,2014-01-02 23:30:00,
2014-01-02 17:35:00,36.7,18.1,29.96,South,171,3.6,4.0,46,0.00,,---,0.00,VWS V14.01,2014-01-02 23:35:00,
2014-01-02 17:40:00,36.1,18.4,29.96,South,171,4.5,4.5,48,0.00,,---,0.00,VWS V14.01,2014-01-02 23:40:00,
2014-01-02 17:45:00,35.8,18.0,29.96,South,171,4.0,4.0,48,0.00,,---,0.00,VWS V14.01,2014-01-02 23:45:00,
2014-01-02 17:50:00,35.4,17.7,29.96,South,171,4.9,4.9,48,0.00,,---,0.00,VWS V14.01,2014-01-02 23:50:00,
2014-01-02 17:55:00,35.2,18.2,29.96,South,171,3.1,4.0,50,0.00,,---,0.00,VWS V14.01,2014-01-02 23:55:00,
2014-01-02 18:00:00,35.2,18.2,29.96,South,171,4.0,4.0,50,0.00,,---,0.00,VWS V14.01,2014-01-03 00:00:00,
2014-01-02 18:05:00,35.1,18.1,29.96,South,171,2.7,3.1,50,0.00,,---,0.00,VWS V14.01,2014-01-03 00:05:00,
2014-01-02 18:10:00,34.7,17.7,29.96,South,171,3.1,4.0,50,0.00,,---,0.00,VWS V14.01,2014-01-03 00:10:00,
2014-01-02 18:15:00,34.2,17.2,29.96,South,171,4.0,4.0,50,0.00,,---,0.00,VWS V14.01,2014-01-03 00:15:00,
2014-01-02 18:20:00,34.0,17.1,29.96,South,171,3.6,3.6,50,0.00,,---,0.00,VWS V14.01,2014-01-03 00:20:00,
2014-01-02 18:25:00,33.6,16.8,29.96,South,171,3.6,4.0,50,0.00,,---,0.00,VWS V14.01,2014-01-03 00:25:00,
2014-01-02 18:30:00,33.1,16.9,29.96,South,171,4.0,4.0,51,0.00,,---,0.00,VWS V14.01,2014-01-03 00:30:00,
2014-01-02 18:35:00,33.1,17.6,29.96,South,171,4.0,4.0,52,0.00,,---,0.00,VWS V14.01,2014-01-03 00:35:00,
2014-01-02 18:40:00,32.5,17.1,29.96,SSE,168,4.9,5.4,52,0.00,,---,0.00,VWS V14.01,2014-01-03 00:40:00,
2014-01-02 18:45:00,31.8,17.1,29.96,SSE,166,5.8,6.3,54,0.00,,---,0.00,VWS V14.01,2014-01-03 00:45:00,
2014-01-02 18:50:00,31.6,18.2,29.96,SSE,164,4.0,4.9,57,0.00,,---,0.00,VWS V14.01,2014-01-03 00:50:00,
2014-01-02 18:55:00,31.1,18.3,29.96,SSE,154,4.0,6.3,58,0.00,,---,0.00,VWS V14.01,2014-01-03 00:55:00,
2014-01-02 19:00:00,31.1,18.9,29.96,SSE,154,4.0,4.9,60,0.00,,---,0.00,VWS V14.01,2014-01-03 01:00:00,
2014-01-02 19:05:00,30.7,18.5,29.96,SSE,154,3.6,3.6,60,0.00,,---,0.00,VWS V14.01,2014-01-03 01:05:00,
2014-01-02 19:10:00,30.4,17.6,29.96,SSE,154,4.0,4.0,58,0.00,,---,0.00,VWS V14.01,2014-01-03 01:10:00,
2014-01-02 19:15:00,30.0,17.8,29.96,SSE,154,4.0,4.5,60,0.00,,---,0.00,VWS V14.01,2014-01-03 01:15:00,
2014-01-02 19:20:00,29.7,18.1,29.96,SSE,154,4.0,4.0,62,0.00,,---,0.00,VWS V14.01,2014-01-03 01:20:00,
2014-01-02 19:25:00,29.5,17.9,29.96,SSE,154,4.0,4.0,62,0.00,,---,0.00,VWS V14.01,2014-01-03 01:25:00,
2014-01-02 19:30:00,29.3,17.1,29.96,SSE,154,3.6,3.6,60,0.00,,---,0.00,VWS V14.01,2014-01-03 01:30:00,
2014-01-02 19:35:00,28.9,16.8,29.96,SSE,154,4.0,4.0,60,0.00,,---,0.00,VWS V14.01,2014-01-03 01:35:00,
2014-01-02 19:40:00,28.6,17.0,29.96,SSE,154,2.7,3.6,62,0.00,,---,0.00,VWS V14.01,2014-01-03 01:40:00,
2014-01-02 19:45:00,28.4,16.9,29.96,SSE,154,4.0,4.0,62,0.00,,---,0.00,VWS V14.01,2014-01-03 01:45:00,
2014-01-02 19:50:00,28.4,16.9,29.96,SSE,154,3.1,4.0,62,0.00,,---,0.00,VWS V14.01,2014-01-03 01:50:00,
2014-01-02 19:55:00,28.6,17.0,29.96,SSE,154,4.0,4.0,62,0.00,,---,0.00,VWS V14.01,2014-01-03 01:55:00,
2014-01-02 20:00:00,28.6,17.0,29.96,SSE,154,4.0,4.0,62,0.00,,---,0.00,VWS V14.01,2014-01-03 02:00:00,
2014-01-02 20:05:00,28.6,17.0,29.96,SSE,154,3.6,4.0,62,0.00,,---,0.00,VWS V14.01,2014-01-03 02:05:00,
2014-01-02 20:10:00,28.2,16.7,29.96,SSE,153,4.0,4.0,62,0.00,,---,0.00,VWS V14.01,2014-01-03 02:10:00,
2014-01-02 20:15:00,27.9,16.4,29.96,SSE,153,4.0,4.0,62,0.00,,---,0.00,VWS V14.01,2014-01-03 02:15:00,
2014-01-02 20:20:00,27.7,16.7,29.96,SSE,153,3.1,3.1,63,0.00,,---,0.00,VWS V14.01,2014-01-03 02:20:00,
2014-01-02 20:25:00,27.5,16.6,29.96,SSE,153,2.7,3.6,63,0.00,,---,0.00,VWS V14.01,2014-01-03 02:25:00,
2014-01-02 20:30:00,27.5,16.6,29.96,SSE,153,3.1,3.1,63,0.00,,---,0.00,VWS V14.01,2014-01-03 02:30:00,
2014-01-02 20:35:00,27.5,16.6,29.96,SSE,153,3.6,3.6,63,0.00,,---,0.00,VWS V14.01,2014-01-03 02:35:00,
2014-01-02 20:40:00,27.3,16.4,29.96,SSE,152,4.5,4.5,63,0.00,,---,0.00,VWS V14.01,2014-01-03 02:40:00,
2014-01-02 20:45:00,26.8,15.9,29.96,SSE,151,3.1,4.0,63,0.00,,---,0.00,VWS V14.01,2014-01-03 02:45:00,
2014-01-02 20:50:00,26.6,16.3,29.96,SSE,151,3.6,4.0,64,0.00,,---,0.00,VWS V14.01,2014-01-03 02:50:00,
2014-01-02 20:55:00,26.6,16.3,29.96,SSE,151,3.1,3.6,64,0.00,,---,0.00,VWS V14.01,2014-01-03 02:55:00,
2014-01-02 21:00:00,26.6,16.3,29.96,SSE,151,3.6,3.6,64,0.00,,---,0.00,VWS V14.01,2014-01-03 03:00:00,
2014-01-02 21:05:00,26.6,16.3,29.96,SE,133,4.9,4.9,64,0.00,,---,0.00,VWS V14.01,2014-01-03 03:05:00,
2014-01-02 21:10:00,26.4,16.1,29.96,ENE,76,4.0,4.9,64,0.00,,---,0.00,VWS V14.01,2014-01-03 03:10:00,
2014-01-02 21:15:00,26.1,15.7,29.96,ENE,76,4.0,4.5,64,0.00,,---,0.00,VWS V14.01,2014-01-03 03:15:00,
2014-01-02 21:20:00,25.9,15.6,29.96,ENE,76,4.0,4.0,64,0.00,,---,0.00,VWS V14.01,2014-01-03 03:20:00,
2014-01-02 21:25:00,25.5,15.2,29.96,ENE,76,3.1,4.0,64,0.00,,---,0.00,VWS V14.01,2014-01-03 03:25:00,
2014-01-02 21:30:00,25.3,15.6,29.96,ENE,76,2.2,3.1,66,0.00,,---,0.00,VWS V14.01,2014-01-03 03:30:00,
2014-01-02 21:35:00,25.3,15.6,29.96,ENE,76,2.2,2.2,66,0.00,,---,0.00,VWS V14.01,2014-01-03 03:35:00,
2014-01-02 21:40:00,25.3,15.6,29.96,ENE,76,0.0,0.0,66,0.00,,---,0.00,VWS V14.01,2014-01-03 03:40:00,
2014-01-02 21:45:00,25.0,15.2,29.96,ENE,76,2.7,3.1,66,0.00,,---,0.00,VWS V14.01,2014-01-03 03:45:00,
2014-01-02 21:50:00,25.2,15.9,29.96,ENE,76,2.7,2.7,68,0.00,,---,0.00,VWS V14.01,2014-01-03 03:50:00,
2014-01-02 21:55:00,25.3,16.1,29.96,ENE,76,2.7,3.1,68,0.00,,---,0.00,VWS V14.01,2014-01-03 03:55:00,
2014-01-02 22:00:00,25.3,16.1,29.96,ENE,76,0.0,0.0,68,0.00,,---,0.00,VWS V14.01,2014-01-03 04:00:00,
2014-01-02 22:05:00,25.3,16.1,29.96,ENE,76,3.6,3.6,68,0.00,,---,0.00,VWS V14.01,2014-01-03 04:05:00,
2014-01-02 22:10:00,25.2,15.9,29.96,ENE,76,2.7,3.6,68,0.00,,---,0.00,VWS V14.01,2014-01-03 04:10:00,
2014-01-02 22:15:00,25.0,15.8,29.96,ENE,76,2.7,3.1,68,0.00,,---,0.00,VWS V14.01,2014-01-03 04:15:00,
2014-01-02 22:20:00,25.0,15.8,29.96,ENE,76,3.1,3.1,68,0.00,,---,0.00,VWS V14.01,2014-01-03 04:20:00,
2014-01-02 22:25:00,25.2,15.9,29.96,ENE,76,3.6,3.6,68,0.00,,---,0.00,VWS V14.01,2014-01-03 04:25:00,
2014-01-02 22:30:00,25.2,16.4,29.96,ENE,76,0.0,2.7,69,0.00,,---,0.00,VWS V14.01,2014-01-03 04:30:00,
2014-01-02 22:35:00,25.0,16.3,29.96,ENE,76,3.1,3.1,69,0.00,,---,0.00,VWS V14.01,2014-01-03 04:35:00,
2014-01-02 22:40:00,24.8,16.1,29.96,ENE,76,4.0,4.0,69,0.00,,---,0.00,VWS V14.01,2014-01-03 04:40:00,
2014-01-02 22:45:00,24.8,16.1,29.96,East,80,3.6,4.0,69,0.00,,---,0.00,VWS V14.01,2014-01-03 04:45:00,
2014-01-02 22:50:00,24.8,16.1,29.96,East,80,3.1,3.1,69,0.00,,---,0.00,VWS V14.01,2014-01-03 04:50:00,
2014-01-02 22:55:00,24.6,16.4,29.96,East,80,3.1,3.1,70,0.00,,---,0.00,VWS V14.01,2014-01-03 04:55:00,
2014-01-02 23:00:00,24.8,16.6,29.96,East,80,4.0,4.0,70,0.00,,---,0.00,VWS V14.01,2014-01-03 05:00:00,
2014-01-02 23:01:00,24.8,16.6,29.96,East,80,4.0,4.0,70,0.00,,---,0.00,VWS V14.01,2014-01-03 05:01:00,
2014-01-02 23:06:00,24.6,16.4,29.96,East,81,4.0,4.0,70,0.00,,---,0.00,VWS V14.01,2014-01-03 05:06:00,
2014-01-02 23:11:00,24.8,17.1,29.96,East,81,2.7,3.6,72,0.00,,---,0.00,VWS V14.01,2014-01-03 05:11:00,
2014-01-02 23:16:00,24.8,16.6,29.96,East,81,4.0,4.0,70,0.00,,---,0.00,VWS V14.01,2014-01-03 05:16:00,
2014-01-02 23:21:00,24.6,16.4,29.96,East,81,4.0,4.0,70,0.00,,---,0.00,VWS V14.01,2014-01-03 05:21:00,
2014-01-02 23:26:00,24.4,16.2,29.96,East,81,3.1,3.6,70,0.00,,---,0.00,VWS V14.01,2014-01-03 05:26:00,
2014-01-02 23:31:00,24.3,16.1,29.96,East,81,3.1,3.1,70,0.00,,---,0.00,VWS V14.01,2014-01-03 05:31:00,
2014-01-02 23:36:00,24.3,16.1,29.96,East,81,3.1,3.6,70,0.00,,---,0.00,VWS V14.01,2014-01-03 05:36:00,
2014-01-02 23:41:00,24.1,16.4,29.96,East,81,3.6,4.0,72,0.00,,---,0.00,VWS V14.01,2014-01-03 05:41:00,
2014-01-02 23:46:00,24.1,16.4,29.96,East,81,4.5,4.5,72,0.00,,---,0.00,VWS V14.01,2014-01-03 05:46:00,
2014-01-02 23:51:00,23.9,16.2,29.96,East,81,3.6,4.0,72,0.00,,---,0.00,VWS V14.01,2014-01-03 05:51:00,
2014-01-02 23:56:00,23.9,16.2,29.96,East,81,4.0,4.0,72,0.00,,---,0.00,VWS V14.01,2014-01-03 05:56:00,